Regional Weather Roundup
Issued by NWS Green Bay, WI

Home | Current Version | Previous Version | Graphics & Text | Print | Product List | Glossary Off
Versions: 1 2 3 4 5 6 7 8 9 10 11 12 13 14 15 16 17 18 19 20 21 22 23 24 25 26 27 28 29 30 31 32 33 34 35 36 37 38 39 40 41 42 43 44 45 46 47 48 49 50

000
ASUS43 KGRB 231000
RWRGRB

NORTH-CENTRAL AND NORTHEAST WISCONSIN REGIONAL WEATHER ROUNDUP
NATIONAL WEATHER SERVICE GREEN BAY WI
500 AM CDT SUN APR 23 2017

WIZ005-009-010>012-018-019-231100-
NORTH CENTRAL WISCONSIN

CITY           SKY/WX    TMP DP  RH WIND       PRES   REMARKS
IRONWOOD       LGT RAIN  38  37  97 NE7       30.11S
MANITOWISH WTR NOT AVBL
ARBOR VITAE    NOT AVBL
EAGLE RIVER    NOT AVBL
LAND O LAKES   NOT AVBL
RHINELANDER    CLOUDY    45  34  65 NW3       30.04R
PHILLIPS       MOCLDY    43  37  78 N6        30.05R
ANTIGO         NOT AVBL
TOMAHAWK       NOT AVBL
MERRILL        NOT AVBL
$$

WIZ013-073-231100-
NORTHEAST WISCONSIN

CITY           SKY/WX    TMP DP  RH WIND       PRES   REMARKS
IRON MOUNTAIN  PTCLDY    42  33  70 CALM      30.02S
MARINETTE      CLOUDY    47  32  56 CALM      30.04R
$$

WIZ017-030-035>037-045-231100-
CENTRAL WISCONSIN

CITY           SKY/WX    TMP DP  RH WIND       PRES   REMARKS
MEDFORD        NOT AVBL
WAUSAU         CLOUDY    49  33  54 SW7       30.03S
MOSINEE        NOT AVBL
MARSHFIELD     CLOUDY    42  31  64 SW7       30.05S
WISC RAPIDS    CLOUDY    44  32  62 SW5       30.08S
STEVENS POINT  NOT AVBL
WAUPACA        NOT AVBL
SHAWANO        NOT AVBL
CLINTONVILLE   NOT AVBL
WAUTOMA        CLEAR     33  30  88 CALM      30.09S
$$

WIZ038-039-048-051-231100-
FOX VALLEY

CITY           SKY/WX    TMP DP  RH WIND       PRES   REMARKS
NWS GREEN BAY  CLEAR     45  36  70 S3        30.06S
APPLETON       NOT AVBL
OSHKOSH        CLEAR     47  31  53 SW5       30.07S
FOND DU LAC    CLEAR     47  31  53 SW9       30.09S
$$

WIZ022-050-052-231100-
EAST CENTRAL WISCONSIN

CITY           SKY/WX    TMP DP  RH WIND       PRES   REMARKS
EPHRAIM        NOT AVBL
WASHINGTON ISL NOT AVBL
STURGEON BAY   CLOUDY    51  33  50 SW12      30.04R
MANITOWOC      NOT AVBL
SHEBOYGAN      CLEAR     41  30  65 SW7       30.08S
$$

LMZ563-521-522-541>543-231100-
LAKESHORE

STATION/POSITION TIME  TEMP    WIND        PRES    VSBY  WAVE
                       AIR SEA DIR/SP/G                  HT/PER
                 (UTC) (F)     (DEG/KT/KT) (MB)    (MI)  (FT/S)
SHEBOYGAN LKSHOR 0900   49     250/ 11/ 12 1018.5F
KEWAUNEE LKSHORE 0930   48     280/  6/  8 1017.1R
NORTHPORT PIER   0940   48     270/  5/  8 1016.6S
N MID LAKE BUOY  0850   45 37  240/ 10/ 12 1017.4F         2/ 4
CHAMBERS ISLAND  0940   40        CALM     1016.6R
MENOMINEE LKSHOR 0930   51     230/ 11/ 15 1015.7R
$$




USA.gov is the U.S. government's official web portal to all federal, state and local government web resources and services.